Weather History for Knoxville, IA

Change the Weather History Date:

Sunday, February 26, 2012

  Actual Average Record
Temperature  
Mean Temperature 40 °F -  
Max Temperature 53 °F 41 °F 65 °F (1988)
Min Temperature 26 °F 21 °F -12 °F (1963)
Degree Days  
Heating Degree Days 26    
Moisture  
Dew Point 23 °F    
Average Humidity 48    
Maximum Humidity 65    
Minimum Humidity 35    
Precipitation  
Precipitation 0.00 in - - ()
Sea Level Pressure  
Sea Level Pressure 29.91 in    
Wind  
Wind Speed 17 mph (SW)    
Max Wind Speed 23 mph    
Max Gust Speed 30 mph    
Visibility 10 miles    
Events      
Averages and records for this station are not official NWS values.
T = Trace of Precipitation, MM = Missing Value Source: NWS Daily Summary

Daily Weather History Graph

Daily Weather History Graph

Search for Another Location

Airport:

Trip Planner

Search our weather history database for the weather conditions in past years. The results will help you decide how hot, cold, wet, or windy it might be!

Date:

Astronomy

Feb. 26, 2012 Rise Set
Actual Time 6:52 AM CST 5:59 PM CST
Civil Twilight 6:24 AM CST 6:27 PM CST
Nautical Twilight 5:52 AM CST 6:59 PM CST
Astronomical Twilight 5:20 AM CST 7:31 PM CST
Moon 8:43 AM CST (2/26) 11:01 PM CST (2/26)
Length of Visible Light 12h 02m
Length of Day
11h 06m
Waxing Crescent, 21% of the Moon is Illuminated
Feb 26
Waxing Crescent
Feb 29
First Quarter
Mar 8
Full
Mar 14
Last Quarter
Mar 22
New

Hourly Weather History & Observations

Time (CST) Temp. Windchill Dew Point Humidity Pressure Visibility Wind Dir Wind Speed Gust Speed Precip Events Conditions
12:35 AM 26.6 °F 14.3 °F 15.8 °F 64% 29.99 in 10.0 mi ESE 16.1 mph - N/A   Clear
12:55 AM 26.6 °F 14.3 °F 15.8 °F 64% 29.98 in 10.0 mi ESE 16.1 mph - N/A   Clear
1:15 AM 28.4 °F 16.2 °F 15.8 °F 59% 29.96 in 10.0 mi SE 17.3 mph 21.9 mph N/A   Clear
1:35 AM 30.2 °F 18.1 °F 15.8 °F 55% 29.95 in 10.0 mi SE 18.4 mph 25.3 mph N/A   Clear
1:55 AM 32.0 °F 19.5 °F 14.0 °F 48% 29.93 in 10.0 mi SE 21.9 mph 27.6 mph N/A   Clear
2:15 AM 32.0 °F 20.5 °F 14.0 °F 48% 29.92 in 10.0 mi SE 18.4 mph 28.8 mph N/A   Clear
2:35 AM 30.2 °F 17.8 °F 15.8 °F 55% 29.91 in 10.0 mi SE 19.6 mph 26.5 mph N/A   Clear
2:55 AM 30.2 °F 18.5 °F 15.8 °F 55% 29.89 in 10.0 mi SE 17.3 mph 25.3 mph N/A   Clear
3:35 AM 32.0 °F 19.5 °F 15.8 °F 51% 29.85 in 10.0 mi SE 21.9 mph 29.9 mph N/A   Clear
3:55 AM 33.8 °F 22.8 °F 15.8 °F 48% 29.86 in 10.0 mi SSE 18.4 mph 26.5 mph N/A   Clear
4:15 AM 32.0 °F 21.2 °F 15.8 °F 51% 29.86 in 10.0 mi SSE 16.1 mph 24.2 mph N/A   Clear
4:35 AM 33.8 °F 23.2 °F 17.6 °F 52% 29.85 in 10.0 mi SSE 17.3 mph 24.2 mph N/A   Clear
4:55 AM 33.8 °F 23.5 °F 17.6 °F 52% 29.84 in 10.0 mi SSE 16.1 mph 24.2 mph N/A   Clear
5:15 AM 33.8 °F 23.2 °F 17.6 °F 52% 29.83 in 10.0 mi SSE 17.3 mph 25.3 mph N/A   Clear
5:35 AM 33.8 °F 23.9 °F 17.6 °F 52% 29.82 in 10.0 mi SSE 15.0 mph 24.2 mph N/A   Clear
5:55 AM 33.8 °F 22.5 °F 19.4 °F 56% 29.81 in 10.0 mi South 19.6 mph 25.3 mph N/A   Clear
6:15 AM 37.4 °F 27.5 °F 19.4 °F 48% 29.82 in 10.0 mi South 18.4 mph 27.6 mph N/A   Clear
6:35 AM 37.4 °F 26.4 °F 21.2 °F 52% 29.81 in 10.0 mi South 23.0 mph 29.9 mph N/A   Clear
6:55 AM 37.4 °F 27.2 °F 21.2 °F 52% 29.80 in 10.0 mi South 19.6 mph 28.8 mph N/A   Clear
7:15 AM 37.4 °F 27.2 °F 21.2 °F 52% 29.80 in 10.0 mi South 19.6 mph 25.3 mph N/A   Clear
7:55 AM 39.2 °F 29.3 °F 21.2 °F 49% 29.80 in 10.0 mi South 20.7 mph 27.6 mph N/A   Clear
8:15 AM 39.2 °F 30.2 °F 23.0 °F 52% 29.82 in 10.0 mi South 17.3 mph 26.5 mph N/A   Clear
8:55 AM 41.0 °F 31.9 °F 23.0 °F 49% 29.83 in 10.0 mi SSW 19.6 mph 27.6 mph N/A   Clear
9:15 AM 42.8 °F 35.1 °F 23.0 °F 46% 29.84 in 10.0 mi SSW 16.1 mph 25.3 mph N/A   Clear
9:35 AM 42.8 °F 35.8 °F 23.0 °F 46% 29.84 in 10.0 mi SSW 13.8 mph 23.0 mph N/A   Clear
9:55 AM 44.6 °F 36.4 °F 23.0 °F 43% 29.84 in 10.0 mi SSW 20.7 mph 26.5 mph N/A   Clear
10:15 AM 44.6 °F 37.4 °F 23.0 °F 43% 29.85 in 10.0 mi SW 16.1 mph 21.9 mph N/A   Clear
10:35 AM 44.6 °F 37.2 °F 24.8 °F 46% 29.85 in 10.0 mi SW 17.3 mph 21.9 mph N/A   Clear
10:55 AM 46.4 °F 39.8 °F 24.8 °F 43% 29.86 in 10.0 mi SW 16.1 mph 21.9 mph N/A   Clear
11:15 AM 46.4 °F 40.1 °F 26.6 °F 46% 29.87 in 10.0 mi SW 15.0 mph 19.6 mph N/A   Clear
11:35 AM 48.2 °F - 24.8 °F 40% 29.88 in 10.0 mi WSW 18.4 mph 23.0 mph N/A   Clear
11:55 AM 48.2 °F - 26.6 °F 43% 29.88 in 10.0 mi WSW 15.0 mph 20.7 mph N/A   Clear
12:15 PM 50.0 °F - 26.6 °F 40% 29.89 in 10.0 mi WSW 17.3 mph - N/A   Clear
12:35 PM 51.8 °F - 24.8 °F 35% 29.89 in 10.0 mi WSW 19.6 mph 24.2 mph N/A   Clear
12:55 PM 51.8 °F - 26.6 °F 38% 29.88 in 10.0 mi WSW 17.3 mph - N/A   Clear
1:15 PM 51.8 °F - 26.6 °F 38% 29.89 in 10.0 mi WSW 19.6 mph 23.0 mph N/A   Clear
1:35 PM 51.8 °F - 26.6 °F 38% 29.89 in 10.0 mi West 18.4 mph 23.0 mph N/A   Clear
1:55 PM 51.8 °F - 24.8 °F 35% 29.90 in 10.0 mi WSW 19.6 mph 26.5 mph N/A   Clear
2:15 PM 53.6 °F - 26.6 °F 35% 29.90 in 10.0 mi West 19.6 mph 25.3 mph N/A   Clear
2:35 PM 53.6 °F - 26.6 °F 35% 29.91 in 10.0 mi West 17.3 mph 23.0 mph N/A   Clear
2:55 PM 53.6 °F - 26.6 °F 35% 29.92 in 10.0 mi West 18.4 mph 25.3 mph N/A   Clear
3:15 PM 53.6 °F - 26.6 °F 35% 29.93 in 10.0 mi West 18.4 mph - N/A   Clear
3:35 PM 53.6 °F - 26.6 °F 35% 29.93 in 10.0 mi West 18.4 mph - N/A   Clear
3:55 PM 51.8 °F - 28.4 °F 41% 29.94 in 10.0 mi West 13.8 mph 25.3 mph N/A   Clear
4:15 PM 51.8 °F - 28.4 °F 41% 29.96 in 10.0 mi WNW 16.1 mph 24.2 mph N/A   Clear
4:35 PM 48.2 °F - 24.8 °F 40% 29.97 in 10.0 mi WNW 17.3 mph - N/A   Clear
4:55 PM 48.2 °F - 24.8 °F 40% 29.97 in 10.0 mi WNW 15.0 mph - N/A   Clear
5:15 PM 46.4 °F 40.4 °F 24.8 °F 43% 29.98 in 10.0 mi NW 13.8 mph 19.6 mph N/A   Clear
5:35 PM 44.6 °F 38.4 °F 24.8 °F 46% 30.00 in 10.0 mi NW 12.7 mph - N/A   Clear
5:55 PM 42.8 °F 38.0 °F 26.6 °F 53% 30.01 in 10.0 mi NW 8.1 mph - N/A   Clear
6:15 PM 41.0 °F 35.8 °F 26.6 °F 57% 30.02 in 10.0 mi NW 8.1 mph - N/A   Clear
6:35 PM 39.2 °F 35.0 °F 24.8 °F 56% 30.03 in 10.0 mi NW 5.8 mph - N/A   Clear
6:55 PM 39.2 °F 35.9 °F 24.8 °F 56% 30.03 in 10.0 mi NW 4.6 mph - N/A   Clear
7:15 PM 39.2 °F 35.9 °F 24.8 °F 56% 30.04 in 10.0 mi WNW 4.6 mph - N/A   Clear
7:35 PM 37.4 °F 32.8 °F 24.8 °F 60% 30.05 in 10.0 mi WNW 5.8 mph - N/A   Clear
7:55 PM 37.4 °F 32.8 °F 24.8 °F 60% 30.05 in 10.0 mi WNW 5.8 mph - N/A   Clear
8:15 PM 37.4 °F 33.8 °F 24.8 °F 60% 30.06 in 10.0 mi West 4.6 mph - N/A   Clear
8:35 PM 37.4 °F 32.1 °F 24.8 °F 60% 30.06 in 10.0 mi WNW 6.9 mph - N/A   Clear
8:55 PM 35.6 °F 31.7 °F 24.8 °F 65% 30.07 in 10.0 mi WNW 4.6 mph - N/A   Clear
9:15 PM 37.4 °F 32.1 °F 24.8 °F 60% 30.09 in 10.0 mi NNW 6.9 mph - N/A   Clear
9:35 PM 35.6 °F 29.9 °F 26.6 °F 70% 30.10 in 10.0 mi NNW 6.9 mph - N/A   Clear
9:55 PM 35.6 °F 27.1 °F 26.6 °F 70% 30.11 in 10.0 mi NNW 12.7 mph - N/A   Clear
10:15 PM 33.8 °F 25.3 °F 24.8 °F 70% 30.13 in 10.0 mi NNW 11.5 mph - N/A   Clear
10:35 PM 33.8 °F 25.8 °F 24.8 °F 70% 30.15 in 10.0 mi NW 10.4 mph - N/A   Clear
10:55 PM 32.0 °F 23.6 °F 23.0 °F 69% 30.16 in 10.0 mi NW 10.4 mph - N/A   Clear
11:15 PM 30.2 °F 21.9 °F 23.0 °F 75% 30.17 in 10.0 mi NW 9.2 mph - N/A   Clear
11:35 PM 30.2 °F 22.6 °F 21.2 °F 69% 30.18 in 10.0 mi WNW 8.1 mph - N/A   Clear
11:55 PM 30.2 °F 19.3 °F 21.2 °F 69% 30.19 in 10.0 mi WNW 15.0 mph - N/A   Scattered Clouds